| time (UTC) | temp F | wind direction | speed MPH | gust MPH | rain 1hr in | rain 24hr in | rain mn in | humidity % | barometer mb |
| 20260906042518 | 51 | 69 | 1.0 | 4.0 | 0.00 | 0.35 | 0.00 | 95 | 1003.1 |
| 20260906041518 | 51 | 66 | 1.0 | 3.0 | 0.00 | 0.35 | 0.00 | 96 | 1003.0 |
| 20260906040515 | 51 | 63 | 1.0 | 4.0 | 0.00 | 0.35 | 0.00 | 96 | 1002.8 |
| 20260906035516 | 51 | 65 | 1.0 | 4.0 | 0.00 | 0.36 | 0.00 | 96 | 1002.6 |
| 20260906034518 | 51 | 84 | 1.0 | 2.0 | 0.00 | 0.36 | 0.00 | 96 | 1002.5 |
| 20260906033516 | 51 | 86 | 1.0 | 3.0 | 0.00 | 0.36 | 0.00 | 96 | 1002.3 |
| 20260906032536 | 51 | 79 | 1.0 | 3.0 | 0.00 | 0.36 | 0.00 | 96 | 1002.1 |
| 20260906031516 | 50 | 80 | 1.0 | 2.0 | 0.00 | 0.36 | 0.00 | 96 | 1002.0 |
| 20260906030516 | 50 | 87 | 0.0 | 2.0 | 0.00 | 0.36 | 0.00 | 96 | 1001.9 |
| 20260906025516 | 50 | 148 | 0.0 | 2.0 | 0.00 | 0.36 | 0.00 | 96 | 1001.7 |
| 20260906024516 | 50 | 250 | 0.0 | 1.0 | 0.00 | 0.36 | 0.00 | 96 | 1001.7 |
| 20260906023516 | 50 | 235 | 0.0 | 1.0 | 0.00 | 0.36 | 0.00 | 96 | 1001.5 |
| 20260906022557 | 50 | 251 | 0.0 | 1.0 | 0.00 | 0.36 | 0.00 | 96 | 1001.3 |
| 20260906021537 | 50 | 238 | 0.0 | 1.0 | 0.00 | 0.36 | 0.00 | 96 | 1001.2 |
| 20260906020517 | 49 | 210 | 0.0 | 1.0 | 0.00 | 0.36 | 0.00 | 96 | 1001.1 |
| 20260906015537 | 49 | 215 | 0.0 | 1.0 | 0.00 | 0.36 | 0.00 | 96 | 1001.0 |
| 20260906014517 | 49 | 239 | 0.0 | 1.0 | 0.00 | 0.36 | 0.00 | 96 | 1001.0 |
| 20260906013517 | 49 | 237 | 0.0 | 1.0 | 0.00 | 0.36 | 0.00 | 96 | 1000.8 |
| 20260906012537 | 48 | 234 | 0.0 | 1.0 | 0.00 | 0.36 | 0.00 | 96 | 1000.8 |
| 20260906011518 | 48 | 244 | 0.0 | 1.0 | 0.00 | 0.36 | 0.00 | 96 | 1000.7 |
| 20260906010518 | 48 | 225 | 0.0 | 1.0 | 0.00 | 0.36 | 0.00 | 96 | 1000.7 |
| 20260906005538 | 49 | 243 | 1.0 | 2.0 | 0.00 | 0.36 | 0.00 | 96 | 1000.6 |
| 20260906004518 | 49 | 241 | 0.0 | 2.0 | 0.00 | 0.36 | 0.00 | 96 | 1000.5 |
| 20260906003518 | 49 | 255 | 0.0 | 1.0 | 0.00 | 0.36 | 0.00 | 96 | 1000.4 |
| 20260906002515 | 49 | 232 | 0.0 | 1.0 | 0.00 | 0.36 | 0.00 | 96 | 1000.3 |
| 20260906001516 | 49 | 240 | 1.0 | 2.0 | 0.00 | 0.36 | 0.00 | 96 | 1000.2 |
| 20260906000515 | 49 | 246 | 0.0 | 2.0 | 0.00 | 0.36 | 0.00 | 96 | 1000.1 |
| 20260905235516 | 49 | 240 | 1.0 | 1.0 | 0.00 | 0.36 | 0.00 | 96 | 1000.0 |
| 20260905234516 | 49 | 233 | 0.0 | 1.0 | 0.00 | 0.36 | 0.00 | 96 | 999.9 |
| 20260905233516 | 50 | 239 | 0.0 | 2.0 | 0.00 | 0.36 | 0.00 | 96 | 999.9 |
| 20260905232516 | 50 | 234 | 1.0 | 2.0 | 0.00 | 0.36 | 0.00 | 96 | 999.8 |
| 20260905231517 | 50 | 240 | 0.0 | 1.0 | 0.00 | 0.36 | 0.00 | 96 | 999.7 |
| 20260905230516 | 50 | 222 | 1.0 | 2.0 | 0.00 | 0.36 | 0.00 | 96 | 999.6 |
| 20260905225537 | 50 | 222 | 0.0 | 2.0 | 0.00 | 0.36 | 0.00 | 96 | 999.7 |
| 20260905224517 | 51 | 207 | 0.0 | 2.0 | 0.00 | 0.36 | 0.00 | 96 | 999.6 |
| 20260905223517 | 51 | 222 | 0.0 | 2.0 | 0.00 | 0.36 | 0.00 | 96 | 999.5 |
| 20260905222517 | 51 | 219 | 0.0 | 2.0 | 0.00 | 0.36 | 0.00 | 96 | 999.5 |
| 20260905221518 | 51 | 221 | 0.0 | 2.0 | 0.00 | 0.36 | 0.00 | 96 | 999.3 |
| 20260905220518 | 52 | 233 | 0.0 | 1.0 | 0.00 | 0.36 | 0.00 | 96 | 999.2 |
| 20260905215518 | 52 | 224 | 0.0 | 2.0 | 0.00 | 0.36 | 0.00 | 96 | 999.2 |
| 20260905214515 | 51 | 146 | 0.0 | 2.0 | 0.00 | 0.36 | 0.00 | 96 | 999.1 |
| 20260905213518 | 51 | 227 | 1.0 | 2.0 | 0.00 | 0.36 | 0.00 | 96 | 999.1 |
| 20260905212515 | 51 | 194 | 0.0 | 1.0 | 0.00 | 0.36 | 0.00 | 96 | 999.0 |
| 20260905211516 | 51 | 226 | 0.0 | 2.0 | 0.00 | 0.36 | 0.00 | 96 | 999.0 |
| 20260905210516 | 51 | 226 | 1.0 | 2.0 | 0.00 | 0.36 | 0.00 | 96 | 999.0 |
| 20260905205516 | 51 | 211 | 1.0 | 2.0 | 0.00 | 0.36 | 0.36 | 96 | 998.9 |
| 20260905204516 | 51 | 186 | 0.0 | 2.0 | 0.00 | 0.36 | 0.36 | 96 | 998.8 |
| 20260905203516 | 51 | 212 | 0.0 | 2.0 | 0.00 | 0.36 | 0.36 | 96 | 998.7 |
| 20260905202516 | 50 | 228 | 0.0 | 2.0 | 0.00 | 0.36 | 0.36 | 96 | 998.6 |
| 20260905201516 | 50 | 208 | 0.0 | 1.0 | 0.00 | 0.36 | 0.36 | 96 | 998.5 |
| 20260905200516 | 49 | 225 | 0.0 | 1.0 | 0.00 | 0.36 | 0.36 | 95 | 998.5 |
| 20260905195516 | 49 | 224 | 0.0 | 2.0 | 0.00 | 0.36 | 0.36 | 95 | 998.4 |
| 20260905194517 | 49 | 195 | 1.0 | 2.0 | 0.00 | 0.36 | 0.36 | 95 | 998.4 |
| 20260905193517 | 48 | 221 | 0.0 | 2.0 | 0.00 | 0.36 | 0.36 | 95 | 998.4 |
| 20260905192517 | 48 | 218 | 1.0 | 2.0 | 0.00 | 0.36 | 0.36 | 95 | 998.4 |
| 20260905191517 | 48 | 209 | 0.0 | 2.0 | 0.00 | 0.36 | 0.36 | 95 | 998.4 |
| 20260905190517 | 48 | 219 | 0.0 | 2.0 | 0.00 | 0.36 | 0.36 | 95 | 998.4 |
| 20260905185517 | 48 | 211 | 0.0 | 1.0 | 0.00 | 0.36 | 0.36 | 95 | 998.4 |
| 20260905184537 | 49 | 205 | 0.0 | 2.0 | 0.00 | 0.36 | 0.36 | 95 | 998.3 |
| 20260905183518 | 49 | 228 | 0.0 | 1.0 | 0.00 | 0.36 | 0.36 | 95 | 998.2 |
| 20260905182538 | 49 | 233 | 1.0 | 2.0 | 0.00 | 0.36 | 0.36 | 94 | 998.2 |
| 20260905181515 | 49 | 224 | 0.0 | 2.0 | 0.00 | 0.36 | 0.36 | 94 | 998.2 |
| 20260905180519 | 49 | 227 | 0.0 | 1.0 | 0.00 | 0.36 | 0.36 | 94 | 998.2 |
| 20260905175516 | 50 | 210 | 1.0 | 2.0 | 0.00 | 0.36 | 0.36 | 94 | 998.1 |
| 20260905174516 | 50 | 227 | 1.0 | 2.0 | 0.00 | 0.36 | 0.36 | 94 | 998.1 |
| 20260905173516 | 51 | 241 | 0.0 | 2.0 | 0.00 | 0.36 | 0.36 | 94 | 998.1 |
| 20260905172516 | 51 | 224 | 1.0 | 2.0 | 0.00 | 0.36 | 0.36 | 94 | 998.0 |
| 20260905171516 | 52 | 233 | 1.0 | 2.0 | 0.00 | 0.36 | 0.36 | 94 | 997.9 |
| 20260905170516 | 52 | 241 | 1.0 | 2.0 | 0.00 | 0.36 | 0.36 | 93 | 997.8 |
| 20260905165516 | 53 | 229 | 1.0 | 2.0 | 0.00 | 0.36 | 0.36 | 93 | 997.7 |
| 20260905164517 | 53 | 247 | 1.0 | 2.0 | 0.00 | 0.36 | 0.36 | 93 | 997.6 |
| 20260905163517 | 53 | 244 | 1.0 | 2.0 | 0.00 | 0.36 | 0.36 | 93 | 997.4 |
| 20260905162537 | 54 | 245 | 1.0 | 2.0 | 0.00 | 0.36 | 0.36 | 93 | 997.3 |
| 20260905161517 | 54 | 252 | 1.0 | 2.0 | 0.00 | 0.36 | 0.36 | 92 | 997.2 |
| 20260905160517 | 54 | 229 | 1.0 | 2.0 | 0.00 | 0.36 | 0.36 | 92 | 997.1 |
| 20260905155517 | 55 | 246 | 1.0 | 2.0 | 0.00 | 0.36 | 0.36 | 92 | 997.0 |
| 20260905154515 | 55 | 243 | 1.0 | 2.0 | 0.00 | 0.36 | 0.36 | 90 | 996.9 |
| 20260905153515 | 56 | 244 | 1.0 | 2.0 | 0.00 | 0.36 | 0.36 | 88 | 996.8 |
| 20260905152516 | 56 | 235 | 1.0 | 2.0 | 0.00 | 0.36 | 0.36 | 87 | 996.8 |
| 20260905151515 | 57 | 199 | 1.0 | 3.0 | 0.00 | 0.36 | 0.36 | 90 | 996.7 |
| 20260905150515 | 57 | 247 | 0.0 | 2.0 | 0.00 | 0.36 | 0.36 | 90 | 996.6 |
| 20260905145555 | 57 | 235 | 0.0 | 1.0 | 0.00 | 0.36 | 0.36 | 90 | 996.5 |
| 20260905144515 | 58 | 268 | 0.0 | 1.0 | 0.00 | 0.36 | 0.36 | 90 | 996.4 |
| 20260905143516 | 57 | 245 | 0.0 | 1.0 | 0.00 | 0.36 | 0.36 | 91 | 996.3 |
| 20260905142516 | 56 | 231 | 0.0 | 1.0 | 0.05 | 0.36 | 0.36 | 92 | 996.3 |
| 20260905141516 | 56 | 241 | 1.0 | 2.0 | 0.05 | 0.36 | 0.36 | 92 | 996.2 |
| 20260905140516 | 56 | 238 | 0.0 | 1.0 | 0.05 | 0.36 | 0.36 | 92 | 996.2 |
| 20260905135516 | 56 | 232 | 0.0 | 1.0 | 0.05 | 0.36 | 0.36 | 90 | 996.2 |
| 20260905134537 | 56 | 232 | 1.0 | 2.0 | 0.05 | 0.36 | 0.36 | 88 | 996.2 |
| 20260905133517 | 57 | 37 | 1.0 | 3.0 | 0.04 | 0.36 | 0.36 | 84 | 996.2 |
| 20260905132517 | 59 | 14 | 2.0 | 4.0 | 0.00 | 0.31 | 0.31 | 79 | 996.1 |
| 20260905131517 | 60 | 29 | 1.0 | 3.0 | 0.00 | 0.31 | 0.31 | 82 | 995.7 |
| 20260905130517 | 60 | 281 | 0.0 | 1.0 | 0.00 | 0.31 | 0.31 | 84 | 995.7 |
| 20260905125517 | 60 | 135 | 1.0 | 2.0 | 0.00 | 0.31 | 0.31 | 80 | 995.6 |
| 20260905124518 | 60 | 74 | 1.0 | 3.0 | 0.00 | 0.31 | 0.31 | 80 | 995.5 |
| 20260905123538 | 60 | 69 | 1.0 | 5.0 | 0.00 | 0.31 | 0.31 | 87 | 995.4 |
| 20260905122518 | 59 | 219 | 1.0 | 2.0 | 0.00 | 0.31 | 0.31 | 88 | 995.4 |
| 20260905121538 | 59 | 243 | 1.0 | 2.0 | 0.00 | 0.31 | 0.31 | 89 | 995.3 |
| 20260905120538 | 59 | 238 | 0.0 | 1.0 | 0.00 | 0.31 | 0.31 | 89 | 995.3 |
| 20260905115516 | 58 | 247 | 0.0 | 1.0 | 0.00 | 0.31 | 0.31 | 89 | 995.2 |
| 20260905114516 | 58 | 231 | 0.0 | 1.0 | 0.00 | 0.31 | 0.31 | 90 | 995.2 |
| 20260905113515 | 57 | 226 | 0.0 | 1.0 | 0.19 | 0.31 | 0.31 | 90 | 995.2 |
| 20260905112516 | 57 | 200 | 0.0 | 1.0 | 0.29 | 0.31 | 0.31 | 90 | 995.1 |
| 20260905111515 | 57 | 224 | 1.0 | 2.0 | 0.29 | 0.31 | 0.31 | 90 | 995.1 |
| 20260905110516 | 56 | 220 | 1.0 | 2.0 | 0.29 | 0.31 | 0.31 | 91 | 995.0 |
| 20260905105516 | 56 | 243 | 1.0 | 2.0 | 0.29 | 0.31 | 0.31 | 89 | 994.9 |
| 20260905104536 | 58 | 194 | 1.0 | 2.0 | 0.29 | 0.31 | 0.31 | 84 | 994.9 |
| 20260905103536 | 61 | 203 | 1.0 | 4.0 | 0.10 | 0.12 | 0.12 | 74 | 994.7 |
| 20260905102516 | 64 | 6 | 1.0 | 3.0 | 0.00 | 0.02 | 0.02 | 69 | 994.2 |
| 20260905101517 | 63 | 216 | 1.0 | 2.0 | 0.00 | 0.02 | 0.02 | 65 | 994.0 |
| 20260905100517 | 63 | 180 | 1.0 | 3.0 | 0.00 | 0.02 | 0.02 | 66 | 994.0 |
| 20260905095517 | 62 | 256 | 1.0 | 3.0 | 0.00 | 0.02 | 0.02 | 73 | 993.9 |
| 20260905094557 | 61 | 129 | 1.0 | 2.0 | 0.00 | 0.02 | 0.02 | 70 | 993.9 |
| 20260905093538 | 60 | 317 | 0.0 | 2.0 | 0.00 | 0.02 | 0.02 | 75 | 993.9 |
| 20260905092518 | 60 | 68 | 0.0 | 3.0 | 0.00 | 0.02 | 0.02 | 75 | 993.8 |
| 20260905091517 | 60 | 97 | 1.0 | 2.0 | 0.00 | 0.02 | 0.02 | 75 | 993.8 |
| 20260905090518 | 61 | 219 | 1.0 | 2.0 | 0.00 | 0.02 | 0.02 | 80 | 993.6 |
| 20260905085518 | 60 | 205 | 1.0 | 3.0 | 0.00 | 0.02 | 0.02 | 80 | 993.6 |
| 20260905084515 | 60 | 207 | 1.0 | 2.0 | 0.00 | 0.02 | 0.02 | 83 | 993.5 |
| 20260905083518 | 59 | 181 | 1.0 | 1.0 | 0.00 | 0.02 | 0.02 | 84 | 993.5 |
| 20260905082515 | 59 | 208 | 0.0 | 1.0 | 0.00 | 0.02 | 0.02 | 86 | 993.5 |
| 20260905081515 | 59 | 236 | 0.0 | 2.0 | 0.00 | 0.02 | 0.02 | 86 | 993.4 |
| 20260905080516 | 58 | 229 | 1.0 | 2.0 | 0.00 | 0.02 | 0.02 | 87 | 993.3 |
| 20260905075516 | 58 | 175 | 1.0 | 2.0 | 0.00 | 0.02 | 0.02 | 86 | 993.3 |
| 20260905074516 | 58 | 271 | 0.0 | 1.0 | 0.00 | 0.02 | 0.02 | 89 | 993.2 |
| 20260905073516 | 57 | 186 | 0.0 | 1.0 | 0.00 | 0.02 | 0.02 | 92 | 993.2 |
| 20260905072517 | 57 | 146 | 1.0 | 2.0 | 0.00 | 0.02 | 0.02 | 95 | 993.1 |
| 20260905071516 | 56 | 197 | 0.0 | 1.0 | 0.00 | 0.02 | 0.02 | 96 | 993.0 |
| 20260905070536 | 55 | 50 | 1.0 | 2.0 | 0.00 | 0.02 | 0.02 | 96 | 992.9 |
| 20260905065537 | 55 | 254 | 0.0 | 1.0 | 0.00 | 0.02 | 0.02 | 96 | 992.8 |
| 20260905064517 | 54 | 217 | 0.0 | 2.0 | 0.00 | 0.02 | 0.02 | 96 | 992.7 |
| 20260905063518 | 54 | 200 | 0.0 | 2.0 | 0.00 | 0.02 | 0.02 | 96 | 992.7 |
| 20260905062517 | 53 | 54 | 0.0 | 1.0 | 0.00 | 0.02 | 0.02 | 96 | 992.5 |
| 20260905061518 | 53 | 75 | 1.0 | 2.0 | 0.00 | 0.02 | 0.02 | 96 | 992.5 |
| 20260905060537 | 53 | 289 | 0.0 | 3.0 | 0.00 | 0.02 | 0.02 | 96 | 992.5 |
| 20260905055518 | 52 | 55 | 0.0 | 1.0 | 0.00 | 0.02 | 0.02 | 96 | 992.5 |
| 20260905054518 | 52 | 195 | 0.0 | 1.0 | 0.00 | 0.02 | 0.02 | 96 | 992.4 |
| 20260905053558 | 52 | 128 | 0.0 | 1.0 | 0.00 | 0.02 | 0.02 | 96 | 992.4 |
| 20260905052535 | 51 | 282 | 0.0 | 1.0 | 0.01 | 0.02 | 0.02 | 96 | 992.4 |
| 20260905051515 | 51 | 251 | 0.0 | 1.0 | 0.01 | 0.02 | 0.02 | 96 | 992.4 |
| 20260905050516 | 51 | 265 | 0.0 | 1.0 | 0.01 | 0.02 | 0.02 | 96 | 992.4 |
| 20260905045535 | 51 | 236 | 0.0 | 1.0 | 0.02 | 0.02 | 0.02 | 96 | 992.4 |
| 20260905044516 | 51 | 77 | 0.0 | 1.0 | 0.02 | 0.02 | 0.02 | 96 | 992.4 |
| 20260905043556 | 50 | 267 | 0.0 | 1.0 | 0.02 | 0.02 | 0.02 | 96 | 992.5 |